TimeEST,TemperatureF,Dew PointF,Humidity,Sea Level PressureIn,VisibilityMPH,Wind Direction,Wind SpeedMPH,Gust SpeedMPH,PrecipitationIn,Events,Conditions,WindDirDegrees,DateUTC
12:53 AM,26.1,6.1,43,30.17,10.0,West,6.9,-,N/A,,Clear,260,2013-02-19 05:53:00
1:53 AM,28.0,8.1,43,30.18,10.0,WSW,9.2,-,N/A,,Clear,250,2013-02-19 06:53:00
2:53 AM,28.9,10.9,47,30.17,10.0,WSW,4.6,-,N/A,,Clear,240,2013-02-19 07:53:00
3:53 AM,28.0,14.0,56,30.15,10.0,WSW,3.5,-,N/A,,Clear,240,2013-02-19 08:53:00
4:53 AM,21.9,12.9,68,30.16,10.0,SW,3.5,-,N/A,,Partly Cloudy,220,2013-02-19 09:53:00
5:53 AM,21.9,14.0,72,30.16,10.0,Calm,Calm,-,N/A,,Clear,0,2013-02-19 10:53:00
6:53 AM,21.9,14.0,72,30.14,10.0,Calm,Calm,-,N/A,,Clear,0,2013-02-19 11:53:00
7:53 AM,24.1,17.1,75,30.12,10.0,Calm,Calm,-,N/A,,Clear,0,2013-02-19 12:53:00
8:53 AM,35.1,25.0,67,30.11,10.0,SSW,5.8,-,N/A,,Clear,210,2013-02-19 13:53:00
9:53 AM,42.1,30.0,62,30.10,10.0,SW,11.5,-,N/A,,Clear,220,2013-02-19 14:53:00
10:53 AM,45.0,33.1,63,30.09,10.0,SSW,15.0,23.0,N/A,,Clear,210,2013-02-19 15:53:00
11:53 AM,46.4,33.8,62,30.04,10.0,SSW,13.8,23.0,N/A,,Clear,200,2013-02-19 16:53:00
1:53 PM,46.4,35.6,66,29.97,10.0,South,12.7,-,N/A,,Scattered Clouds,180,2013-02-19 18:53:00
2:53 PM,46.0,36.0,68,29.94,10.0,SSE,8.1,-,N/A,,Partly Cloudy,160,2013-02-19 19:53:00
3:53 PM,43.0,37.0,80,29.90,10.0,SSE,9.2,-,N/A,,Mostly Cloudy,150,2013-02-19 20:53:00
4:53 PM,45.0,39.9,82,29.87,5.0,South,12.7,-,0.00,Rain,Light Rain,190,2013-02-19 21:53:00
5:48 PM,44.6,41.0,87,29.81,9.0,SSE,8.1,-,0.02,Rain,Light Rain,150,2013-02-19 22:48:00
5:53 PM,43.0,41.0,93,29.81,9.0,SSE,10.4,-,0.02,,Overcast,150,2013-02-19 22:53:00
6:33 PM,41.0,39.2,93,29.77,5.0,SE,6.9,-,0.00,Rain,Light Rain,140,2013-02-19 23:33:00
7:41 PM,44.6,42.8,93,29.73,2.0,South,8.1,-,0.15,Rain,Heavy Rain,190,2013-02-20 00:41:00
7:50 PM,46.4,42.8,87,29.74,2.0,WSW,12.7,-,0.20,Rain,Heavy Rain,250,2013-02-20 00:50:00
7:53 PM,46.0,43.0,89,29.74,1.5,SW,10.4,-,0.26,Rain,Heavy Rain,230,2013-02-20 00:53:00
8:10 PM,46.4,42.8,87,29.72,1.8,SW,9.2,-,0.17,Rain,Heavy Rain,230,2013-02-20 01:10:00
8:17 PM,46.4,42.8,87,29.71,3.0,South,9.2,-,0.19,Rain,Rain,180,2013-02-20 01:17:00
8:53 PM,45.0,43.0,93,29.65,6.0,SSE,11.5,-,0.23,Rain,Light Rain,150,2013-02-20 01:53:00
9:06 PM,44.6,42.8,93,29.64,2.5,SSE,13.8,19.6,0.03,Rain,Rain,160,2013-02-20 02:06:00
9:18 PM,44.6,42.8,93,29.63,2.5,South,9.2,-,0.07,Rain,Rain,180,2013-02-20 02:18:00
9:34 PM,46.4,44.6,93,29.63,2.5,SSW,11.5,-,0.15,Rain,Rain,210,2013-02-20 02:34:00
9:40 PM,46.4,44.6,93,29.64,3.0,SW,10.4,18.4,0.18,Rain,Rain,230,2013-02-20 02:40:00
9:47 PM,46.4,44.6,93,29.64,4.0,SW,10.4,-,0.19,Rain,Light Rain,230,2013-02-20 02:47:00
9:53 PM,46.0,44.1,93,29.64,6.0,SW,9.2,-,0.19,Rain,Light Rain,230,2013-02-20 02:53:00
10:24 PM,46.4,44.6,93,29.61,8.0,WSW,4.6,-,0.03,Rain,Light Rain,240,2013-02-20 03:24:00
10:53 PM,43.0,42.1,97,29.61,6.0,South,3.5,-,0.03,Rain,Light Rain,180,2013-02-20 03:53:00
11:53 PM,44.1,42.1,93,29.59,10.0,WSW,4.6,-,0.00,Rain,Light Rain,250,2013-02-20 04:53:00